This is the latest recevied weather packets stored in our database for station/object KC5TIL-3. If no packets are shown the sender has not sent any weather packets the latest 10 day(s).
| Time | Temp. | Humidity | Pressure | Rain* | Wind** | Luminosity | Snow |
|---|---|---|---|---|---|---|---|
| 1787608857 | 41.11° C | 10% | 1008.8 hPa | 0 mm | 2.68 m/s, 201° | - | - |
| 1787608556 | 41.11° C | 10% | 1008.8 hPa | 0 mm | 2.24 m/s, 198° | - | - |
| 1787608258 | 41.67° C | 10% | 1008.8 hPa | 0 mm | 2.68 m/s, 158° | - | - |
| 1787607955 | 41.11° C | 10% | 1008.8 hPa | 0 mm | 4.47 m/s, 218° | - | - |
| 1787607654 | 41.11° C | 10% | 1008.8 hPa | 0 mm | 2.68 m/s, 145° | - | - |
| 1787607356 | 41.11° C | 10% | 1008.8 hPa | 0 mm | 3.58 m/s, 195° | - | - |
| 1787607058 | 40.56° C | 10% | 1008.8 hPa | 0 mm | 3.58 m/s, 219° | - | - |
| 1787606756 | 41.11° C | 10% | 1008.8 hPa | 0 mm | 4.47 m/s, 179° | - | - |
| 1787606458 | 40.56° C | 10% | 1008.8 hPa | 0 mm | 4.47 m/s, 218° | - | - |
| 1787606160 | 41.67° C | 10% | 1008.8 hPa | 0 mm | 2.24 m/s, 234° | - | - |
| 1787605858 | 41.11° C | 10% | 1008.8 hPa | 0 mm | 2.24 m/s, 159° | - | - |
| 1787605560 | 41.11° C | 10% | 1008.8 hPa | 0 mm | 2.68 m/s, 215° | - | - |
| 1787605257 | 41.11° C | 10% | 1008.8 hPa | 0 mm | 3.13 m/s, 245° | - | - |
| 1787604956 | 41.11° C | 10% | 1008.8 hPa | 0 mm | 2.68 m/s, 157° | - | - |
| 1787604658 | 41.11° C | 10% | 1008.8 hPa | 0 mm | 3.58 m/s, 203° | - | - |
| 1787604360 | 41.11° C | 10% | 1009.8 hPa | 0 mm | 2.68 m/s, 155° | - | - |
| 1787604058 | 41.11° C | 10% | 1009.8 hPa | 0 mm | 2.68 m/s, 187° | - | - |
| 1787603760 | 41.67° C | 10% | 1009.8 hPa | 0 mm | 3.13 m/s, 222° | - | - |
| 1787603462 | 41.11° C | 10% | 1009.8 hPa | 0 mm | 3.13 m/s, 185° | - | - |
| 1787603161 | 40.56° C | 10% | 1009.8 hPa | 0 mm | 2.68 m/s, 200° | - | - |
| 1787602858 | 40.56° C | 10% | 1009.8 hPa | 0 mm | 3.13 m/s, 206° | - | - |
| 1787602560 | 41.11° C | 10% | 1009.8 hPa | 0 mm | 3.13 m/s, 214° | - | - |
| 1787602259 | 40.56° C | 10% | 1009.8 hPa | 0 mm | 4.02 m/s, 189° | - | - |
| 1787601960 | 40.56° C | 10% | 1009.8 hPa | 0 mm | 2.24 m/s, 223° | - | - |
| 1787601662 | 40.56° C | 10% | 1009.8 hPa | 0 mm | 2.68 m/s, 213° | - | - |
* Rain latest hour (hover to see other rain measurements)
** Current wind speed in m/s (hover to see current wind gust speed)